Regional Weather Roundup
Issued by NWS

Home | Current Version | Previous Version | Graphics & Text | Print | Product List | Glossary On
Versions: 1 2 3 4 5 6 7 8 9 10 11 12 13 14 15 16 17 18 19 20 21 22 23 24 25 26 27
000
ASUS45 KBOU 200107
RWRCO

WEATHER ROUNDUP FOR COLORADO
NATIONAL WEATHER SERVICE DENVER/BOULDER CO
700 PM MDT THU OCT 19 2017

NOTE: "FAIR" INDICATES FEW OR NO CLOUDS BELOW 12000 FEET WITH NO
SIGNIFICANT WEATHER AND/OR OBSTRUCTIONS TO VISIBILITY.

COZ001>005-013-030-031-200200-
...NORTHWEST COLORADO...

CITY           SKY/WX    TMP DP  RH WIND       PRES   REMARKS
CRAIG          CLOUDY    62  29  28 SW9       29.98S
HAYDEN         CLOUDY    62  31  31 SW9       30.02S
MEEKER         MOCLDY    60  32  34 NW3       30.00S
RABBIT EARS PA FAIR      43  23  45 W10G16    30.24S
STEAMBOAT SPGS FAIR      57  26  29 CALM      30.03R
WALDEN         NOT AVBL
$$

COZ006>008-011-200200-
...WEST CENTRAL VALLEYS...

CITY           SKY/WX    TMP DP  RH WIND       PRES   REMARKS
GRAND JUNCTION FAIR      62  23  22 E6        29.93F
MONTROSE       FAIR      60  25  26 NE6       30.00R
EAGLE          FAIR      61  28  28 CALM      30.03R
RIFLE          FAIR      65  29  25 W6        29.96S
DELTA          FAIR      66  22  18 SW6       29.96S
NUCLA          CLOUDY    64  30  27 CALM      30.04F
$$

COZ017>023-064>068-200200-
...SOUTHWEST COLORADO...

CITY           SKY/WX    TMP DP  RH WIND       PRES   REMARKS
DURANGO        MOCLDY    59  31  34 SW7       30.07R
CORTEZ         CLOUDY    56  34  43 SE3       30.03S
PAGOSA SPRINGS FAIR      58  23  25 W5        30.12S
TELLURIDE      MOCLDY    53  25  33 W9        30.19S
WOLF CREEK PAS NOT AVBL
$$

COZ009-010-012-014-032>034-037-058>063-200200-
...CENTRAL COLORADO...

CITY           SKY/WX    TMP DP  RH WIND       PRES   REMARKS
ASPEN          FAIR      54  24  31 CALM      30.08R
BUENA VISTA    FAIR      57  14  18 E6        30.08S
COPPER MTN     FAIR      45  21  39 NW12      30.33S
BERTHOUD PASS  FAIR      36  28  75 NW5       30.36S
COTTONWOOD PAS FAIR      57  19  23 W6        30.20S
GUNNISON       FAIR      59  25  27 CALM      30.07S
KREMMLING      FAIR      63  21  20 SW3       30.06R
LEADVILLE      FAIR      47  19  33 N6        30.19R
MONARCH PASS   FAIR      41  14  33 S13       30.43F
SALIDA         FAIR      64   9  11 S7        30.12S
SUNLIGHT       FAIR      41  23  48 SW7       30.28F
WILKERSON PASS FAIR      45   9  23 SW9G16    30.31S
$$

COZ069>075-200200-
...SAN LUIS VALLEY/SANGRE DE CRISTO MOUNTAINS...

CITY           SKY/WX    TMP DP  RH WIND       PRES   REMARKS
ALAMOSA        FAIR      55  20  25 SE6       30.06F
DEL NORTE      FAIR      54  20  27 W5        30.11S
LA VETA PASS   FAIR      48  12  23 S14G22    30.34F
SAGUACHE       FAIR      46  19  34 NE5       30.10F
$$

COZ035-036-038>040-200200-
...NORTHERN COLORADO FRONT RANGE...

CITY           SKY/WX    TMP DP  RH WIND       PRES   REMARKS
DENVER INTL AP MOCLDY    56  30  37 S6        29.91S
DMNS CITY PARK   N/A     59  29  31 NE2G9     29.91S
AURORA         MOCLDY    64  27  24 SW14      29.93S
FRONT RANGE AP MOCLDY    64  27  24 S7        29.93S
ERIE MUNI ARPT FAIR      53  36  51 CALM      29.95S
BOULDER MUN AP FAIR      61  32  33 CALM      29.91S
CENTENNIAL     MOCLDY    64  25  22 S7        29.94S
BROOMFIELD     NOT AVBL
FORT COLLINS   FAIR      62  30  29 CALM      29.91S
LONGMONT       FAIR      57  39  50 CALM      29.92S
$$

COZ041-046-047-076>085-087-088-200200-
...PIKES PEAK/PALMER DIVIDE AND SOUTHERN FOOTHILLS...

CITY           SKY/WX    TMP DP  RH WIND       PRES   REMARKS
COLO. SPRINGS  CLOUDY    58  29  33 SE8       30.02S
A. F. ACADEMY  FAIR      58  21  24 S5        30.02S
SCHRIEVER AFB  FAIR      55  28  35 SE3       30.02S
CHEYENNE MTN   MOCLDY    60  23  24 S6        30.00S
ELLICOTT       FAIR     N/A N/A N/A SE8       30.00F
FALCON         FAIR      50  26  40 S9        30.06S
FORT CARSON    FAIR      60  26  27 SW7       29.98F
LIMON          FAIR      52  35  52 S7        29.97S
MONUMENT HILL  FAIR      52  25  35 S15       30.04S
CANON CITY     FAIR      61  30  31 NE6       29.95S
WALSENBURG     FAIR      61  32  33 NW7       29.97S
TRINIDAD       FAIR      66  24  20 S5        29.97S
$$

COZ042>045-048>051-090-091-200200-
...NORTHEAST COLORADO...

CITY           SKY/WX    TMP DP  RH WIND       PRES   REMARKS
GREELEY ARPT   FAIR      53  38  56 NW8       29.89S
AKRON          FAIR      65  33  30 S15       29.91S
BURLINGTON     FAIR      57  44  62 S9        29.94F
WRAY           NOT AVBL
YUMA           NOT AVBL
STERLING       FAIR      66  37  34 S10       29.86R
HOLYOKE        FAIR      61  41  48 SE9       29.89S
FORT MORGAN    FAIR      66  30  25 S10G18    29.89S
$$

COZ086-089-092>099-200200-
...SOUTHEAST COLORADO...

CITY           SKY/WX    TMP DP  RH WIND       PRES   REMARKS
PUEBLO         FAIR      62  37  39 N8        29.90F
LA JUNTA       FAIR      65  37  35 SE8       29.89S
LAMAR          FAIR      67  46  47 SE12      29.88S
SPRINGFIELD      N/A     63  48  58 S15       29.97R
$$




USA.gov is the U.S. government's official web portal to all federal, state and local government web resources and services.